Simultaneous Nadir Overpasses (SNOs) Predictions

Prediction of SNOs between FY3D and AQUA Satellite Orbit:

Table of predicted SNOs for the next 14.0 days since TLE Epoch: 8/22/2025
Index Date (FY3D) Time (FY3D) Lat,Lon (FY3D) SZA (FY3D ) Date (AQUA) Time (AQUA) Lat,Lon (AQUA) SZA (AQUA ) Distance(km) Time Diff (sec)
1 08/22/2025 18:19:57 79.53,-104.93 68.16 08/22/2025 18:20:32 79.53,-104.91 68.15 0.47 35
2 08/22/2025 19:10:32 -79.25, 64.79 112.19 08/22/2025 19:09:42 -79.26, 64.65 112.17 3.01 50
3 08/25/2025 03:50:40 79.58, 112.00 69.03 08/25/2025 03:51:17 79.57, 112.10 69.02 2.20 37
4 08/25/2025 04:41:15 -79.30, -78.25 111.31 08/25/2025 04:40:27 -79.31, -78.30 111.30 1.24 48
5 08/27/2025 13:21:21 79.54, -30.25 69.81 08/27/2025 13:22:00 79.53, -30.22 69.80 0.73 39
6 08/27/2025 14:11:56 -79.26, 139.50 110.54 08/27/2025 14:11:10 -79.26, 139.38 110.52 2.72 46
7 08/29/2025 22:52:05 79.59,-173.35 70.72 08/29/2025 22:52:45 79.59,-173.24 70.70 2.35 40
8 08/29/2025 23:42:40 -79.31, -3.56 109.63 08/29/2025 23:41:55 -79.32, -3.61 109.62 1.15 45
9 09/01/2025 08:22:46 79.56, 44.37 71.53 09/01/2025 08:23:27 79.55, 44.41 71.52 0.69 41
10 09/01/2025 09:13:21 -79.27,-145.84 108.82 09/01/2025 09:12:37 -79.28,-145.96 108.80 2.81 44
11 09/03/2025 17:53:29 79.58, -98.48 72.43 09/03/2025 17:54:10 79.58, -98.38 72.41 2.21 41



Historial Predications of SNOs between FY3D and AQUA
